W9IF-4 Weather Reports


Display with metric or nautical units.
time (UTC)temp
F
wind
direction
speed
MPH
gust
MPH
rain 1hr
in
rain 24hr
in
rain mn
in
humidity
%
barometer
mb
20150831234602 79 235 13.0 0.0 0.00 0.00 0.00 1009.4
20150831234502 79 228 11.0 0.0 0.00 0.00 0.00 1009.3
20150831234302 79 240 13.0 0.0 0.00 0.00 0.00 1009.4
20150831234203 80 235 16.0 0.0 0.00 0.00 0.00 1009.3
20150831234002 80 229 12.0 0.0 0.00 0.00 0.00 1009.4
20150831233902 80 245 13.0 0.0 0.00 0.00 0.00 1009.4
20150831233802 79 252 14.0 0.0 0.00 0.00 0.00 1009.4
20150831233603 80 245 12.0 0.0 0.00 0.00 0.00 1009.4
20150831233402 80 242 13.0 0.0 0.00 0.00 0.00 1009.3
20150831233302 80 231 13.0 0.0 0.00 0.00 0.00 1009.3
20150831233203 80 228 14.0 0.0 0.00 0.00 0.00 1009.3
20150831233102 80 246 14.0 0.0 0.00 0.00 0.00 1009.3
20150831233002 80 231 11.0 0.0 0.00 0.00 0.00 1009.3
20150831232902 79 211 13.0 0.0 0.00 0.00 0.00 1009.3
20150831232803 80 231 14.0 0.0 0.00 0.00 0.00 1009.3
20150831232702 80 242 15.0 0.0 0.00 0.00 0.00 1009.3
20150831232602 80 242 13.0 0.0 0.00 0.00 0.00 1009.2
20150831232502 80 235 15.0 0.0 0.00 0.00 0.00 1009.3
20150831232103 80 243 13.0 0.0 0.00 0.00 0.00 1009.3
20150831231702 80 221 14.0 0.0 0.00 0.00 0.00 1009.3
20150831231602 80 232 13.0 0.0 0.00 0.00 0.00 1009.3
20150831231502 80 231 15.0 0.0 0.00 0.00 0.00 1009.3
20150831231402 80 229 15.0 0.0 0.00 0.00 0.00 1009.2
20150831231102 80 239 13.0 0.0 0.00 0.00 0.00 1009.3
20150831231002 80 236 16.0 0.0 0.00 0.00 0.00 1009.3
20150831230802 80 245 14.0 0.0 0.00 0.00 0.00 1009.3
20150831230702 80 236 14.0 0.0 0.00 0.00 0.00 1009.3
20150831230602 80 248 13.0 0.0 0.00 0.00 0.00 1009.3
20150831230502 81 231 14.0 0.0 0.00 0.00 0.00 1009.3
20150831230402 80 228 12.0 0.0 0.00 0.00 0.00 1009.3
20150831230302 80 233 15.0 0.0 0.00 0.00 0.00 1009.4
20150831230202 80 242 16.0 0.0 0.00 0.00 0.00 1009.3
20150831230102 81 235 14.0 0.0 0.00 0.00 0.00 1009.3
20150831225902 81 243 13.0 0.0 0.00 0.00 0.00 1009.4
20150831225803 81 219 14.0 0.0 0.00 0.00 0.00 1009.3
20150831225702 81 235 14.0 0.0 0.00 0.00 0.00 1009.3
20150831225602 80 238 12.0 0.0 0.00 0.00 0.00 1009.4
20150831225502 80 239 13.0 0.0 0.00 0.00 0.00 1009.3
20150831225402 80 235 15.0 0.0 0.00 0.00 0.00 1009.3
20150831225202 81 248 14.0 0.0 0.00 0.00 0.00 1009.4
20150831225103 81 238 13.0 0.0 0.00 0.00 0.00 1009.4
20150831225002 81 233 12.0 0.0 0.00 0.00 0.00 1009.4
20150831224902 81 240 15.0 0.0 0.00 0.00 0.00 1009.4
20150831224802 81 239 14.0 0.0 0.00 0.00 0.00 1009.4
20150831224502 81 231 13.0 0.0 0.00 0.00 0.00 1009.5
20150831224402 80 233 14.0 0.0 0.00 0.00 0.00 1009.4
20150831224102 81 236 15.0 0.0 0.00 0.00 0.00 1009.4
20150831224002 81 240 14.0 0.0 0.00 0.00 0.00 1009.4
20150831223902 81 240 16.0 0.0 0.00 0.00 0.00 1009.5
20150831223802 81 240 14.0 0.0 0.00 0.00 0.00 1009.5
20150831223702 82 232 14.0 0.0 0.00 0.00 0.00 1009.5
20150831223602 81 242 13.0 0.0 0.00 0.00 0.00 1009.5
20150831223502 81 231 13.0 0.0 0.00 0.00 0.00 1009.6
20150831223402 81 205 11.0 0.0 0.00 0.00 0.00 1009.6
20150831223302 81 249 16.0 0.0 0.00 0.00 0.00 1009.6
20150831223202 80 238 14.0 0.0 0.00 0.00 0.00 1009.6
20150831223102 81 238 14.0 0.0 0.00 0.00 0.00 1009.6
20150831223002 81 217 13.0 0.0 0.00 0.00 0.00 1009.7
20150831222902 81 229 14.0 0.0 0.00 0.00 0.00 1009.6
20150831222702 81 236 17.0 0.0 0.00 0.00 0.00 1009.7
20150831222602 81 235 15.0 0.0 0.00 0.00 0.00 1009.7
20150831222502 81 235 12.0 0.0 0.00 0.00 0.00 1009.7
20150831222402 81 246 14.0 0.0 0.00 0.00 0.00 1009.7
20150831222302 81 222 15.0 0.0 0.00 0.00 0.00 1009.8
20150831222202 81 249 13.0 0.0 0.00 0.00 0.00 1009.8
20150831222102 81 240 11.0 0.0 0.00 0.00 0.00 1009.8
20150831222002 80 210 14.0 0.0 0.00 0.00 0.00 1009.8
20150831221902 81 239 15.0 0.0 0.00 0.00 0.00 1009.8
20150831221702 81 249 15.0 0.0 0.00 0.00 0.00 1009.7
20150831221602 82 228 15.0 0.0 0.00 0.00 0.00 1009.8
20150831221502 82 226 12.0 0.0 0.00 0.00 0.00 1009.8
20150831221302 82 212 14.0 0.0 0.00 0.00 0.00 1009.7
20150831221002 81 235 15.0 0.0 0.00 0.00 0.00 1009.9
20150831220802 81 242 14.0 0.0 0.00 0.00 0.00 1009.9
20150831220702 81 233 12.0 0.0 0.00 0.00 0.00 1009.9
20150831220602 82 222 11.0 0.0 0.00 0.00 0.00 1009.9
20150831220502 81 238 12.0 0.0 0.00 0.00 0.00 1009.9
20150831220302 81 248 13.0 0.0 0.00 0.00 0.00 1010.0
20150831220202 82 245 14.0 0.0 0.00 0.00 0.00 1010.0
20150831220102 82 245 13.0 0.0 0.00 0.00 0.00 1009.9
20150831220003 81 229 15.0 0.0 0.00 0.00 0.00 1009.9
20150831215902 81 242 14.0 0.0 0.00 0.00 0.00 1009.9
20150831215803 80 246 13.0 0.0 0.00 0.00 0.00 1009.9
20150831215402 81 238 14.0 0.0 0.00 0.00 0.00 1010.0
20150831215302 80 238 15.0 0.0 0.00 0.00 0.00 1009.9
20150831215202 81 239 13.0 0.0 0.00 0.00 0.00 1010.0
20150831215102 82 238 12.0 0.0 0.00 0.00 0.00 1009.9
20150831215002 81 242 15.0 0.0 0.00 0.00 0.00 1010.0
20150831214702 81 233 12.0 0.0 0.00 0.00 0.00 1010.0
20150831214602 81 233 14.0 0.0 0.00 0.00 0.00 1010.0
20150831214302 81 246 15.0 0.0 0.00 0.00 0.00 1010.1
20150831214102 83 236 15.0 0.0 0.00 0.00 0.00 1010.1
20150831214002 82 248 14.0 0.0 0.00 0.00 0.00 1010.1
20150831213902 82 245 15.0 0.0 0.00 0.00 0.00 1010.1
20150831213702 83 212 11.0 0.0 0.00 0.00 0.00 1010.1
20150831213602 83 229 12.0 0.0 0.00 0.00 0.00 1010.1
20150831213102 82 232 13.0 0.0 0.00 0.00 0.00 1010.1
20150831213002 82 226 13.0 0.0 0.00 0.00 0.00 1010.2
20150831212803 82 222 12.0 0.0 0.00 0.00 0.00 1010.2
20150831212702 81 238 12.0 0.0 0.00 0.00 0.00 1010.2
20150831212602 82 235 16.0 0.0 0.00 0.00 0.00 1010.2
20150831212302 83 229 14.0 0.0 0.00 0.00 0.00 1010.2
20150831212102 82 231 15.0 0.0 0.00 0.00 0.00 1010.2
20150831212002 82 243 12.0 0.0 0.00 0.00 0.00 1010.2
20150831211902 82 210 14.0 0.0 0.00 0.00 0.00 1010.3
20150831211802 81 236 16.0 0.0 0.00 0.00 0.00 1010.3
20150831211602 82 232 12.0 0.0 0.00 0.00 0.00 1010.3
20150831211502 82 218 14.0 0.0 0.00 0.00 0.00 1010.4
20150831211402 81 236 14.0 0.0 0.00 0.00 0.00 1010.3
20150831211302 82 246 13.0 0.0 0.00 0.00 0.00 1010.4
20150831211102 81 231 15.0 0.0 0.00 0.00 0.00 1010.3
20150831210802 82 228 14.0 0.0 0.00 0.00 0.00 1010.4
20150831210602 82 238 14.0 0.0 0.00 0.00 0.00 1010.3
20150831210402 83 232 16.0 0.0 0.00 0.00 0.00 1010.3
20150831210302 83 236 14.0 0.0 0.00 0.00 0.00 1010.3
20150831210202 82 236 16.0 0.0 0.00 0.00 0.00 1010.3
20150831210102 82 229 14.0 0.0 0.00 0.00 0.00 1010.3
20150831205902 82 235 15.0 0.0 0.00 0.00 0.00 1010.3
20150831205802 82 218 13.0 0.0 0.00 0.00 0.00 1010.3
20150831205702 82 238 17.0 0.0 0.00 0.00 0.00 1010.3
20150831205602 82 232 15.0 0.0 0.00 0.00 0.00 1010.3
20150831205502 82 233 14.0 0.0 0.00 0.00 0.00 1010.3
20150831205402 82 231 16.0 0.0 0.00 0.00 0.00 1010.3
20150831205302 82 239 15.0 0.0 0.00 0.00 0.00 1010.4
20150831205202 82 212 16.0 0.0 0.00 0.00 0.00 1010.3
20150831205102 82 233 16.0 0.0 0.00 0.00 0.00 1010.3
20150831205002 82 205 15.0 0.0 0.00 0.00 0.00 1010.3
20150831204802 82 239 14.0 0.0 0.00 0.00 0.00 1010.4
20150831204702 82 212 13.0 0.0 0.00 0.00 0.00 1010.3
20150831204502 82 238 15.0 0.0 0.00 0.00 0.00 1010.4
20150831204402 83 222 13.0 0.0 0.00 0.00 0.00 1010.4
20150831204302 83 231 14.0 0.0 0.00 0.00 0.00 1010.3
20150831204202 83 242 13.0 0.0 0.00 0.00 0.00 1010.5
20150831204102 82 240 15.0 0.0 0.00 0.00 0.00 1010.4
20150831204002 82 229 15.0 0.0 0.00 0.00 0.00 1010.5
20150831203802 82 233 16.0 0.0 0.00 0.00 0.00 1010.4
20150831203602 82 232 13.0 0.0 0.00 0.00 0.00 1010.5
20150831203402 82 238 16.0 0.0 0.00 0.00 0.00 1010.5
20150831203302 81 233 15.0 0.0 0.00 0.00 0.00 1010.5
20150831203202 83 219 14.0 0.0 0.00 0.00 0.00 1010.5
20150831203102 82 222 13.0 0.0 0.00 0.00 0.00 1010.5
20150831202802 82 204 13.0 0.0 0.00 0.00 0.00 1010.6
20150831202502 82 246 14.0 0.0 0.00 0.00 0.00 1010.6
20150831202402 82 222 14.0 0.0 0.00 0.00 0.00 1010.6
20150831202302 82 240 16.0 0.0 0.00 0.00 0.00 1010.6
20150831202102 82 242 15.0 0.0 0.00 0.00 0.00 1010.6
20150831202002 83 226 11.0 0.0 0.00 0.00 0.00 1010.6
20150831201902 83 243 16.0 0.0 0.00 0.00 0.00 1010.6
20150831201802 83 235 15.0 0.0 0.00 0.00 0.00 1010.6
20150831201702 83 239 13.0 0.0 0.00 0.00 0.00 1010.6
20150831201502 83 229 14.0 0.0 0.00 0.00 0.00 1010.6
20150831201202 82 200 12.0 0.0 0.00 0.00 0.00 1010.6
20150831201102 82 232 13.0 0.0 0.00 0.00 0.00 1010.6
20150831201002 82 242 16.0 0.0 0.00 0.00 0.00 1010.6
20150831200902 82 222 14.0 0.0 0.00 0.00 0.00 1010.6
20150831200802 82 249 15.0 0.0 0.00 0.00 0.00 1010.6
20150831200702 82 226 13.0 0.0 0.00 0.00 0.00 1010.7
20150831200502 82 204 11.0 0.0 0.00 0.00 0.00 1010.6
20150831200402 82 231 15.0 0.0 0.00 0.00 0.00 1010.7
20150831200302 82 242 14.0 0.0 0.00 0.00 0.00 1010.7
20150831200002 82 222 16.0 0.0 0.00 0.00 0.00 1010.7
20150831195802 82 239 16.0 0.0 0.00 0.00 0.00 1010.7
20150831195702 83 232 14.0 0.0 0.00 0.00 0.00 1010.8
20150831195602 82 226 16.0 0.0 0.00 0.00 0.00 1010.7
20150831195502 82 239 16.0 0.0 0.00 0.00 0.00 1010.7
20150831195402 82 240 15.0 0.0 0.00 0.00 0.00 1010.8
20150831195302 82 219 12.0 0.0 0.00 0.00 0.00 1010.8
20150831195102 82 236 14.0 0.0 0.00 0.00 0.00 1010.8
20150831195002 82 225 13.0 0.0 0.00 0.00 0.00 1010.8
20150831194802 82 221 15.0 0.0 0.00 0.00 0.00 1010.8
20150831194702 82 250 15.0 0.0 0.00 0.00 0.00 1010.7